Hourly Weather Roundup
Issued by NWS Central Illinois

Home | Current Version | Previous Version | Text Only | Print | Product List | Glossary On
Versions: 1 2 3 4 5 6 7 8 9 10 11 12 13 14 15 16 17 18 19 20 21 22 23 24 25 26 27 28 29 30 31 32 33 34 35 36 37 38 39 40 41 42 43 44 45 46 47 48 49 50
000
NZUS43 KILX 281710
HWRILX

AREA WEATHER ROUNDUP
NATIONAL WEATHER SERVICE, LINCOLN IL
1200 PM CDT THU AUG 28 2014


CITY           SKY/WX    TMP DP  RH WIND       PRES   REMARKS
BLOOMINGTON    PTSUNNY   76  66  71 SE8       30.10F
CHAMPAIGN      MOSUNNY   78  69  73 SE7       30.09F HX  80
DECATUR        CLOUDY    77  68  73 E6        30.08F
FLORA          SUNNY     85  73  68 E7        30.05F HX  92
GALESBURG      PTSUNNY   79  69  70 E9        30.06F HX  81
JACKSONVILLE   SUNNY     85  74  69 SE3       30.05F HX  92
LACON          PTSUNNY   75  63  65 E8        30.07F
LAWRENCEVILLE  SUNNY     86  72  62 E5        30.06S HX  92
LITCHFIELD     SUNNY     82  73  75 SE3       30.05F HX  87
$$


CITY           SKY/WX    TMP DP  RH WIND       PRES   REMARKS
LINCOLN        CLOUDY    81  69  65 SE7       30.04F HX  84
MACOMB         PTSUNNY   77  70  77 SE8       30.07F
MATTOON        MOSUNNY   81  69  67 SE5       30.07F HX  84
MT CARMEL AP   SUNNY     88  73  62 CALM      30.05F HX  96
OLNEY-NOBLE AP MOSUNNY   86  75  70 CALM      30.05F HX  95
PARIS          DRIZZLE   74  70  86 CALM      30.09F
PEORIA         CLOUDY    77  65  66 SE8       30.07F
PONTIAC        MOSUNNY   79  68  69 SE5       30.09F HX  81
RANTOUL        MOSUNNY   79  65  61 SE6       30.10F HX  81
ROBINSON       SUNNY     87  72  62 E3        30.07S HX  93
SPRINGFIELD    MOSUNNY   82  71  69 SE6       30.05F HX  86
TAYLORVILLE    SUNNY     81  72  74 SE5       30.06F HX  84
$$

...REGIONAL REPORTS...


CITY           SKY/WX    TMP DP  RH WIND       PRES   REMARKS
CHICAGO O`HARE MOSUNNY   75  52  44 E8        30.12F
KANKAKEE       PTSUNNY   75  64  67 E5        30.11F
MOLINE         CLOUDY    73  62  68 E9        30.07F
MOUNT VERNON   PTSUNNY   84  75  74 E3        30.05F HX  92
PITTSFIELD     SUNNY     84  73  67 SE6       30.04F HX  90
QUINCY         MOSUNNY   82  71  69 S7        30.03S HX  86
ROCKFORD       PTSUNNY   74  58  57 E10       30.13F
$$


CITY           SKY/WX    TMP DP  RH WIND       PRES   REMARKS
BURLINGTON     PTSUNNY   76  68  76 E8        30.04F
CEDAR RAPIDS   LGT RAIN  66  65  96 E9        30.06F
DES MOINES     LGT RAIN  70  67  90 SE13G22   29.98F FOG
KIRKSVILLE     PTSUNNY   82  73  74 VRB5      30.01F HX  87
OTTUMWA        CLOUDY    69  68  96 N9        30.03R FOG
ST LOUIS       MOSUNNY   88  72  58 VRB7      30.04F HX  94
$$


CITY           SKY/WX    TMP DP  RH WIND       PRES   REMARKS
TERRE HAUTE    MOSUNNY   80  68  66 VRB3      30.08F HX  83
EVANSVILLE     PTSUNNY   88  73  61 CALM      30.04F HX  95
INDIANAPOLIS   PTSUNNY   77  66  68 E7        30.08F
LAFAYETTE      PTSUNNY   76  65  68 E6        30.10S
MADISON        PTSUNNY   74  59  59 SE9       30.12F
MILWAUKEE      MOSUNNY   69  54  58 SE12      30.15F
$$




USA.gov is the U.S. government's official web portal to all federal, state and local government web resources and services.